Regional Weather Roundup
Issued by NWS Charleston, WV

Home | Current Version | Previous Version | Text Only | Print | Product List | Glossary Off
Versions: 1 2 3 4 5 6 7 8 9 10 11 12 13 14 15 16 17 18 19 20 21 22 23 24 25 26 27 28 29 30 31 32 33 34 35 36 37 38 39 40 41 42

000
ASUS41 KRLX 270410
RWRRLX
West Virginia Regional Weather Roundup
National Weather Service Charleston WV
1200 AM EDT MON MAR 27 2017

Note: "fair" indicates few or no clouds below 12,000 feet with no
significant weather and/or obstructions to visibility.

WVZ003-270500-
Northern Panhandle of West Virginia

CITY           SKY/WX    TMP DP  RH WIND       PRES   REMARKS
WHEELING       CLOUDY    55  52  89 S10       29.96F
$$

WVZ009-270500-
Northwest West Virginia

CITY           SKY/WX    TMP DP  RH WIND       PRES   REMARKS
PARKERSBURG    CLOUDY    56  54  93 S8        30.00F
$$

WVZ006-270500-
Western West Virginia

CITY           SKY/WX    TMP DP  RH WIND       PRES   REMARKS
HUNTINGTON     CLOUDY    59  55  87 S6        29.98F
$$

WVZ015-270500-
West Central West Virginia

CITY           SKY/WX    TMP DP  RH WIND       PRES   REMARKS
CHARLESTON     LGT RAIN  59  56  89 S5        30.00F
$$

WVZ022-031-270500-
North Central West Virginia

CITY           SKY/WX    TMP DP  RH WIND       PRES   REMARKS
CLARKSBURG     CLOUDY    56  54  93 SE7       30.00F
MORGANTOWN     LGT RAIN  55  51  86 SE14      30.01F
$$

WVZ025-035-042-045-270500-
Southern West Virginia

CITY           SKY/WX    TMP DP  RH WIND       PRES   REMARKS
BECKLEY        LGT RAIN  56  52  86 S10       30.06F
LOGAN          HVY RAIN  57  57 100 CALM      30.05R VSB 1/2
BLUEFIELD      NOT AVBL
LEWISBURG      CLOUDY    57  52  81 CALM      30.09F
$$

WVZ047-270500-
Northern Mountains of West Virginia

CITY           SKY/WX    TMP DP  RH WIND       PRES   REMARKS
ELKINS         CLOUDY    55  51  86 SE6       30.06S
$$

WVZ052-270500-
Eastern Panhandle of West Virginia

CITY           SKY/WX    TMP DP  RH WIND       PRES   REMARKS
MARTINSBURG    LGT RAIN  46  44  93 SE3       30.17F FOG
PETERSBURG     LGT RAIN  49  47  93 N3        30.13F
$$




USA.gov is the U.S. government's official web portal to all federal, state and local government web resources and services.